This is the latest recevied weather packets stored in our database for station/object VE8SKI. If no packets are shown the sender has not sent any weather packets the latest 10 day(s).
| Time | Temp. | Humidity | Pressure | Rain* | Wind** | Luminosity | Snow |
|---|---|---|---|---|---|---|---|
| 1777624867 | 2.78° C | 94% | 1006 hPa | 0 mm | 0 m/s | - | - |
| 1777624568 | 2.78° C | 94% | 1006 hPa | 0 mm | 0.45 m/s, 20° | - | - |
| 1777624268 | 2.78° C | 92% | 1005.8 hPa | 0 mm | 1.79 m/s, 97° | - | - |
| 1777623968 | 2.78° C | 91% | 1005.9 hPa | 0 mm | 0 m/s | - | - |
| 1777623666 | 3.33° C | 92% | 1006.1 hPa | 0 mm | 0 m/s | - | - |
| 1777623366 | 2.78° C | 91% | 1006.2 hPa | 0 mm | 0 m/s | - | - |
| 1777623067 | 3.33° C | 90% | 1006.2 hPa | 0 mm | 0.45 m/s, 283° | - | - |
| 1777622767 | 3.33° C | 90% | 1006.3 hPa | 0 mm | 0 m/s | - | - |
| 1777622467 | 3.33° C | 91% | 1006.4 hPa | 0 mm | 0 m/s | - | - |
| 1777622168 | 3.33° C | 91% | 1006.4 hPa | 0 mm | 0 m/s | - | - |
| 1777621865 | 2.78° C | 90% | 1006.3 hPa | 0 mm | 0.45 m/s, 267° | - | - |
| 1777621566 | 2.78° C | 89% | 1006.3 hPa | 0 mm | 0 m/s | - | - |
| 1777621266 | 3.33° C | 90% | 1006.1 hPa | 0 mm | 0 m/s | - | - |
| 1777620966 | 3.33° C | 89% | 1006.1 hPa | 0 mm | 0 m/s | - | - |
| 1777620667 | 3.33° C | 89% | 1006 hPa | 0 mm | 0 m/s | - | - |
| 1777620367 | 3.33° C | 86% | 1006.1 hPa | 0 mm | 0 m/s | - | - |
| 1777620065 | 3.33° C | 87% | 1006 hPa | 0 mm | 0.89 m/s, 245° | - | - |
| 1777619765 | 3.33° C | 85% | 1006 hPa | 0 mm | 0 m/s | - | - |
| 1777619466 | 3.89° C | 84% | 1005.9 hPa | 0 mm | 0.45 m/s, 115° | - | - |
| 1777619166 | 3.89° C | 84% | 1006.2 hPa | 0 mm | 0 m/s | - | - |
| 1777618866 | 4.44° C | 78% | 1006.4 hPa | 0 mm | 0 m/s | - | - |
| 1777618567 | 4.44° C | 76% | 1006.4 hPa | 0 mm | 0 m/s | - | - |
| 1777618264 | 4.44° C | 75% | 1006.4 hPa | 0 mm | 0 m/s | - | - |
| 1777617965 | 4.44° C | 74% | 1006.4 hPa | 0 mm | 0 m/s | - | - |
| 1777617665 | 5° C | 74% | 1006.4 hPa | 0 mm | 0 m/s | - | - |
* Rain latest hour (hover to see other rain measurements)
** Current wind speed in m/s (hover to see current wind gust speed)